[[{"header":{"parameterUnit":"m.s-1","parameterCategory":1,"la1":30.2991,"la2":30.254,"lo1":-89.0895,"lo2":-89.0444,"dy":0.0017,"dx":0.0017,"nx":28,"ny":28,"refTime":"2024-10-16T21:00:00:Z","depth":0,"parameterNumber":2,"parameterNumberName":"U-component_of_WINDS"},"data":[0,0,0,0,0,0,0,0,0,0,0,0,0,0,0,0,0,0,0,0,0,0,0,0,0,0,0,0,0,0,0,0,0,0,0,0,0,0,0,0,0,0,0,0,0,0,0,0,0,0,0,0,0,0,0,0,0,0,-4.4701,-4.4701,0,-4.473,-4.473,-4.473,-4.4627,-4.4624,-4.4621,-4.4618,-4.4647,-4.465,-4.4654,0,0,0,0,0,0,0,0,0,0,0,0,0,-4.4556,-4.4559,-4.4701,-4.4701,-4.4702,-4.4729,-4.473,-4.473,-4.4628,-4.4624,-4.462,-4.4617,-4.4645,-4.465,-4.4654,0,0,0,0,0,0,0,0,0,0,0,0,0,-4.4605,-4.456,-4.4701,-4.4654,-4.465,-4.4729,-4.473,-4.473,-4.4628,-4.4624,-4.4619,-4.4615,-4.4644,-4.4649,-4.4655,-4.4781,0,0,-4.4671,-4.4674,0,0,0,0,0,0,0,0,-4.4603,-4.4611,-4.466,-4.4657,-4.4653,-4.467,-4.4689,-4.4747,-4.463,-4.4637,-4.4618,-4.4613,-4.4658,-4.4662,-4.4678,-4.4782,-4.4783,-4.4672,-4.4675,-4.4677,-4.4679,0,0,0,0,0,0,0,-4.4599,-4.4609,-4.4712,-4.4661,-4.4657,-4.4631,-4.4633,-4.47,-4.4673,-4.4636,-4.4628,-4.4633,-4.4655,-4.4673,-4.4677,-4.4784,-4.4672,-4.4676,-4.468,-4.4682,-4.4993,-4.4998,0,0,0,0,0,0,-4.4602,-4.4607,-4.4711,-4.4713,-4.4616,-4.4637,-4.4639,-4.4669,-4.4672,-4.4668,-4.4637,-4.4628,-4.4666,-4.4671,-4.4678,-4.4827,-4.4677,-4.4683,-4.4686,-4.4988,-4.4994,-4.5,0,0,0,0,0,0,-4.46,-4.4613,-4.471,-4.4658,-4.4668,-4.4645,-4.4679,-4.4672,-4.4689,-4.4673,-4.4667,-4.466,-4.4662,-4.467,-4.4756,-4.4826,-4.4685,-4.469,-4.4982,-4.499,-4.4997,-4.5125,0,0,0,0,0,0,-4.4596,-4.4612,-4.466,-4.466,-4.4672,-4.4788,-4.4683,-4.4676,-4.4699,-4.4688,-4.4693,-4.4689,-4.4659,-4.4749,-4.4762,-4.4831,-4.4694,-4.4976,-4.4986,-4.4995,-4.5114,-4.5135,-4.5154,0,0,0,0,0,-4.4591,-4.4695,-4.4663,-4.4676,-4.4731,-4.4793,-4.4799,-4.4763,-4.4705,-4.4753,-4.4742,-4.4689,-4.4816,-4.4758,-4.4772,-4.4844,-4.4972,-4.4983,-4.4994,-4.5105,-4.5131,-4.5153,0,0,0,0,0,0,-4.4704,-4.4694,-4.4659,-4.4765,-4.4781,-4.4775,-4.4835,-4.4792,-4.4823,-4.4812,-4.4764,-4.4766,-4.4861,-4.486,-4.4796,-4.4966,-4.4884,-4.4898,-4.4964,-4.4988,-4.5008,-4.5007,-4.4699,0,0,0,0,0,-4.4741,-4.4792,-4.478,-4.4876,-4.4885,-4.4859,-4.4884,-4.4855,-4.4869,-4.4874,-4.487,-4.4885,-4.4928,-4.4958,-4.4997,-4.5113,-4.5113,-4.5169,-4.5189,-4.5205,-4.5219,-4.5281,-4.5306,-4.5037,-4.5037,-4.5036,0,0,-4.4819,-4.4819,-4.4855,-4.4898,-4.4907,-4.4961,-4.4865,-4.4926,-4.4966,-4.4883,-4.4965,-4.4962,-4.4976,-4.5078,-4.5122,-4.508,-4.5293,-4.522,-4.5233,-4.5238,-4.5295,-4.5321,-4.5344,-4.5044,-4.5043,-4.5042,0,0,-4.4988,-4.4993,-4.5074,-4.5084,-4.5098,-4.508,-4.5099,-4.51,-4.5096,-4.5176,-4.5116,-4.5162,-4.5237,-4.525,-4.5266,-4.544,-4.5392,-4.5454,-4.5558,-4.5619,-4.5641,-4.5659,-4.5723,-4.5746,-4.5467,-4.5467,-4.5467,0,-4.5083,-4.5162,-4.512,-4.5186,-4.5207,-4.5135,-4.5216,-4.5228,-4.5254,-4.527,-4.5223,-4.5316,-4.532,-4.5425,-4.5467,-4.5482,-4.5503,-4.5454,-4.5641,-4.5659,-4.5676,-4.5736,-4.576,-4.5475,-4.5474,-4.5473,-4.5472,0,-4.5278,-4.5334,-4.5397,-4.5425,-4.5453,-4.5526,-4.5495,-4.5528,-4.5496,-4.5483,-4.5566,-4.5568,-4.5607,-4.5629,-4.5598,-4.5729,-4.5703,-4.5649,-4.5565,-4.571,-4.5765,-4.5788,-4.5485,-4.5483,-4.548,-4.5479,0,0,-4.5521,-4.5524,-4.5548,-4.556,-4.557,-4.5612,-4.5682,-4.572,-4.5749,-4.5769,-4.5827,-4.5892,-4.5843,-4.5861,-4.5831,-4.5884,-4.6023,-4.5824,-4.5823,-4.5862,-4.6169,-4.621,-4.6238,-4.5991,-4.5995,-4.5998,-4.6168,0,-4.5688,-4.5808,-4.5772,-4.5893,-4.5944,-4.5876,-4.5937,-4.5949,-4.5939,-4.598,-4.5968,-4.6016,-4.5946,-4.5957,-4.6007,-4.5996,-4.6084,-4.5983,-4.6045,-4.6047,-4.6045,-4.6266,-4.631,-4.6471,-4.6189,-4.6193,-4.6196,0,-4.59,-4.5929,-4.6055,-4.6057,-4.6077,-4.6132,-4.6164,-4.6205,-4.6217,-4.6206,-4.6227,-4.6185,-4.6253,-4.6168,-4.6261,-4.6193,-4.6216,-4.6214,-4.622,-4.6225,-4.6132,-4.6279,-4.6521,-4.6546,-4.6229,-4.6226,-4.6224,0,-4.6066,-4.6136,-4.6221,-4.6233,-4.6237,-4.6277,-4.6281,-4.6289,-4.6314,-4.6341,-4.6357,-4.6392,-4.6412,-4.644,-4.6409,-4.6349,-4.6507,-4.6419,-4.65,-4.6501,-4.6538,-4.6536,-4.6788,-4.655,-4.655,-4.6549,-4.6549,0,-4.6258,-4.6338,-4.6296,-4.6348,-4.6436,-4.6393,-4.6481,-4.6477,-4.6484,-4.6534,-4.6477,-4.6525,-4.648,-4.6524,-4.65,-4.6582,-4.659,-4.6583,-4.6576,-4.6589,-4.6591,-4.6605,-4.6594,-4.6556,-4.6554,-4.6553,-4.6552,0,-4.6459,-4.6434,-4.6522,-4.6518,-4.6519,-4.6584,-4.6581,-4.6629,-4.6613,-4.6678,-4.669,-4.6666,-4.6715,-4.6686,-4.6736,-4.6719,-4.6826,-4.6803,-4.6822,-4.6817,-4.69,-4.6893,-4.7171,-4.7205,-4.6944,-4.6947,-4.6949,0,-4.6584,-4.6644,-4.6647,-4.6677,-4.6684,-4.6733,-4.6758,-4.6718,-4.6747,-4.6766,-4.6812,-4.6856,-4.6889,-4.697,-4.6957,-4.6994,-4.6973,-4.7067,-4.6978,-4.699,-4.6976,-4.6973,-4.698,-4.7086,-4.7089,-4.7092,-4.7094,0,-4.6809,-4.6794,-4.6833,-4.6869,-4.6901,-4.6926,-4.6947,-4.6974,-4.6935,-4.697,-4.7019,-4.7045,-4.7096,-4.714,-4.7172,-4.7175,-4.7129,-4.7121,-4.7142,-4.7158,-4.7167,-4.7164,-4.6873,-4.7116,-4.7114,-4.7112,-4.7111,-4.711,-4.6977,-4.7028,-4.7038,-4.7084,-4.7095,-4.7116,-4.7161,-4.7152,-4.7192,-4.7231,-4.7204,-4.7263,-4.7274,-4.7312,-4.732,-4.7366,-4.7327,-4.7357,-4.7365,-4.7374,-4.7386,-4.7159,-4.7371,-4.737,-4.737,-4.7369,-4.7369,0,-4.7201,-4.7204,-4.7246,-4.7277,-4.7313,-4.7266,-4.7286,-4.732,-4.7372,-4.7386,-4.742,-4.7477,-4.752,-4.751,-4.7548,-4.7586,-4.7566,-4.7598,-4.7595,-4.7597,-4.7417,-4.7396,-4.7614,-4.7614,-4.7614,-4.7614,-4.7613,-4.7613,-4.7321,-4.7405,-4.7391,-4.7479,-4.7481,-4.7539,-4.7555,-4.7573,-4.7584,-4.7651,-4.7686,-4.7679,-4.7684,-4.7722,-4.7759,-4.7755,-4.7772,-4.7813,-4.7801,-4.7634,-4.761,-4.7587,-4.7566,-4.7816,-4.7817,-4.7977,-4.7979,-4.798]},{"header":{"parameterUnit":"m.s-1","parameterCategory":1,"la1":30.2991,"la2":30.254,"lo1":-89.0895,"lo2":-89.0444,"dy":0.0017,"dx":0.0017,"nx":28,"ny":28,"refTime":"2024-10-16T21:00:00:Z","depth":0,"parameterNumber":3,"parameterNumberName":"V-component_of_WINDS"},"data":[0,0,0,0,0,0,0,0,0,0,0,0,0,0,0,0,0,0,0,0,0,0,0,0,0,0,0,0,0,0,0,0,0,0,0,0,0,0,0,0,0,0,0,0,0,0,0,0,0,0,0,0,0,0,0,0,0,0,-6.8032,-6.8032,0,-6.8075,-6.8076,-6.8076,-6.7985,-6.7982,-6.7979,-6.7976,-6.8016,-6.802,-6.8024,0,0,0,0,0,0,0,0,0,0,0,0,0,-6.7865,-6.7869,-6.8032,-6.8032,-6.8033,-6.8075,-6.8076,-6.8076,-6.7985,-6.7982,-6.7978,-6.7975,-6.8015,-6.802,-6.8024,0,0,0,0,0,0,0,0,0,0,0,0,0,-6.7926,-6.787,-6.8032,-6.7993,-6.799,-6.8075,-6.8076,-6.8076,-6.7986,-6.7982,-6.7977,-6.7973,-6.8014,-6.8019,-6.8025,-6.8149,0,0,-6.8042,-6.8045,0,0,0,0,0,0,0,0,-6.7923,-6.7932,-6.7998,-6.7996,-6.7992,-6.802,-6.8032,-6.81,-6.7987,-6.7987,-6.7976,-6.7971,-6.8021,-6.8026,-6.8043,-6.815,-6.8152,-6.8043,-6.8046,-6.8049,-6.805,0,0,0,0,0,0,0,-6.7919,-6.793,-6.8049,-6.7999,-6.7996,-6.7971,-6.7975,-6.8044,-6.8028,-6.7987,-6.798,-6.7987,-6.8018,-6.8038,-6.8044,-6.8153,-6.8043,-6.8048,-6.8051,-6.8053,-6.8363,-6.8367,0,0,0,0,0,0,-6.792,-6.7927,-6.8047,-6.805,-6.7946,-6.7978,-6.7982,-6.8016,-6.8027,-6.8025,-6.7991,-6.7983,-6.8031,-6.8037,-6.8045,-6.819,-6.8049,-6.8054,-6.8057,-6.8358,-6.8364,-6.8369,0,0,0,0,0,0,-6.7917,-6.7932,-6.8046,-6.7987,-6.7999,-6.7986,-6.8024,-6.8019,-6.8038,-6.803,-6.8026,-6.8014,-6.8027,-6.8037,-6.8124,-6.8191,-6.8057,-6.8062,-6.8352,-6.836,-6.8367,-6.8483,0,0,0,0,0,0,-6.7912,-6.7931,-6.7979,-6.7989,-6.8003,-6.8126,-6.8028,-6.8023,-6.8049,-6.8039,-6.8051,-6.8049,-6.8025,-6.8116,-6.8129,-6.8196,-6.8066,-6.8346,-6.8356,-6.8364,-6.8473,-6.8493,-6.8511,0,0,0,0,0,-6.7907,-6.8009,-6.7982,-6.7997,-6.8063,-6.813,-6.8138,-6.8109,-6.8055,-6.8102,-6.8097,-6.8048,-6.8181,-6.8125,-6.814,-6.8209,-6.8342,-6.8353,-6.8364,-6.8465,-6.8489,-6.851,0,0,0,0,0,0,-6.8007,-6.801,-6.798,-6.8089,-6.811,-6.8114,-6.8173,-6.8136,-6.8171,-6.816,-6.8121,-6.8125,-6.8219,-6.8222,-6.8161,-6.8329,-6.8252,-6.8266,-6.8324,-6.8347,-6.8366,-6.8363,-6.8071,0,0,0,0,0,-6.8042,-6.8097,-6.8096,-6.8192,-6.8204,-6.8187,-6.8215,-6.8191,-6.8211,-6.8219,-6.822,-6.8239,-6.8285,-6.8316,-6.8358,-6.8473,-6.8474,-6.8528,-6.8547,-6.8562,-6.8575,-6.8635,-6.8659,-6.8404,-6.8404,-6.8404,0,0,-6.8114,-6.8122,-6.8159,-6.8212,-6.8226,-6.8283,-6.8195,-6.8259,-6.83,-6.8228,-6.8311,-6.8312,-6.8331,-6.8433,-6.8478,-6.8439,-6.8645,-6.8576,-6.8588,-6.8592,-6.8649,-6.8673,-6.8695,-6.8412,-6.841,-6.8409,0,0,-6.8275,-6.8287,-6.8369,-6.8384,-6.8406,-6.8394,-6.8414,-6.8424,-6.8423,-6.8505,-6.8452,-6.85,-6.858,-6.8596,-6.8614,-6.8781,-6.8738,-6.8796,-6.8894,-6.8953,-6.8973,-6.8991,-6.905,-6.9072,-6.8808,-6.8809,-6.8809,0,-6.8361,-6.8447,-6.8415,-6.8483,-6.8507,-6.8446,-6.8527,-6.8543,-6.8577,-6.8595,-6.8551,-6.865,-6.8659,-6.8763,-6.8804,-6.8821,-6.8841,-6.8794,-6.8973,-6.8991,-6.9007,-6.9063,-6.9085,-6.8816,-6.8815,-6.8814,-6.8813,0,-6.8552,-6.8612,-6.8674,-6.8711,-6.8742,-6.8817,-6.8795,-6.883,-6.8803,-6.8795,-6.888,-6.8888,-6.893,-6.8953,-6.8927,-6.9054,-6.9029,-6.898,-6.8901,-6.9038,-6.9091,-6.9112,-6.8826,-6.8823,-6.8821,-6.8819,0,0,-6.8777,-6.8796,-6.8819,-6.8835,-6.8855,-6.8899,-6.897,-6.9013,-6.9044,-6.9069,-6.9127,-6.9196,-6.9151,-6.9172,-6.9147,-6.9199,-6.9331,-6.9144,-6.9143,-6.9178,-6.9471,-6.9508,-6.9534,-6.9302,-6.9306,-6.9309,-6.947,0,-6.8937,-6.9061,-6.9035,-6.9156,-6.921,-6.9152,-6.9213,-6.9231,-6.9226,-6.927,-6.9262,-6.9312,-6.9249,-6.9261,-6.9311,-6.9305,-6.9389,-6.9293,-6.9355,-6.9358,-6.9353,-6.9561,-6.9601,-6.9752,-6.949,-6.9493,-6.9496,0,-6.914,-6.9175,-6.9302,-6.9313,-6.9335,-6.9391,-6.9428,-6.9471,-6.949,-6.9482,-6.9506,-6.9471,-6.9539,-6.946,-6.9554,-6.9489,-6.9512,-6.9513,-6.9518,-6.9523,-6.9435,-6.9572,-6.9799,-6.9822,-6.9528,-6.9525,-6.9523,0,-6.9292,-6.937,-6.9457,-6.9472,-6.9487,-6.9528,-6.9535,-6.955,-6.9577,-6.9609,-6.9626,-6.9665,-6.9686,-6.9716,-6.9692,-6.9636,-6.9789,-6.9708,-6.9784,-6.9785,-6.9819,-6.9818,-7.0054,-6.9834,-6.9834,-6.9834,-6.9833,0,-6.9474,-6.9554,-6.9526,-6.9579,-6.9666,-6.9634,-6.9721,-6.9722,-6.9735,-6.9786,-6.9737,-6.9786,-6.9751,-6.9796,-6.9777,-6.9857,-6.9867,-6.9862,-6.9856,-6.9867,-6.9868,-6.9882,-6.9871,-6.9839,-6.9838,-6.9837,-6.9836,0,-6.9659,-6.9643,-6.9733,-6.974,-6.9744,-6.9808,-6.9813,-6.9862,-6.9853,-6.9918,-6.9931,-6.9916,-6.9967,-6.9946,-6.9999,-6.9986,-7.0089,-7.0069,-7.0084,-7.0079,-7.0156,-7.0149,-7.041,-7.0443,-7.0202,-7.0204,-7.0206,0,-6.9776,-6.9836,-6.985,-6.9882,-6.9894,-6.9945,-6.9973,-6.9943,-6.9974,-7.0,-7.0045,-7.0092,-7.0128,-7.0212,-7.0204,-7.0245,-7.0225,-7.0314,-7.0231,-7.024,-7.0227,-7.0224,-7.023,-7.0331,-7.0334,-7.0336,-7.0338,0,-6.9986,-6.9975,-7.0018,-7.0059,-7.0095,-7.0125,-7.0151,-7.0179,-7.015,-7.0187,-7.0239,-7.0267,-7.0322,-7.0369,-7.0404,-7.041,-7.0369,-7.0364,-7.0384,-7.0395,-7.0402,-7.04,-7.0129,-7.0358,-7.0356,-7.0354,-7.0353,-7.0353,-7.014,-7.0192,-7.021,-7.0259,-7.0276,-7.0301,-7.0348,-7.0344,-7.0388,-7.0431,-7.041,-7.0471,-7.0487,-7.053,-7.0542,-7.0588,-7.0553,-7.0581,-7.0589,-7.0596,-7.0607,-7.0394,-7.0594,-7.0593,-7.0593,-7.0592,-7.0592,0,-7.0348,-7.0357,-7.0403,-7.0441,-7.048,-7.044,-7.0466,-7.0501,-7.0555,-7.0574,-7.0611,-7.0671,-7.0716,-7.0712,-7.0753,-7.0791,-7.0773,-7.0803,-7.08,-7.0802,-7.0636,-7.0615,-7.0816,-7.0816,-7.0816,-7.0816,-7.0816,-7.0816,-7.046,-7.0545,-7.0537,-7.0628,-7.0636,-7.0696,-7.0715,-7.0737,-7.0752,-7.0822,-7.086,-7.0858,-7.0867,-7.0909,-7.0948,-7.0946,-7.0963,-7.1,-7.0991,-7.0836,-7.0814,-7.0792,-7.0772,-7.1004,-7.1004,-7.1153,-7.1155,-7.1156]}]]